DW2047 Weather Reports


time (UTC)temp
C
wind
direction
speed
KPH
gust
KPH
rain 1hr
cm
rain 24hr
cm
rain mn
cm
humidity
%
barometer
mb
20260905091544 25 150 0.0 4.8 0.00 0.15 0.00 88 1012.8
20260905091018 25 150 0.0 4.8 0.00 0.15 0.00 88 1012.8
20260905090600 25 150 0.0 4.8 0.00 0.15 0.00 88 1012.8
20260905090052 25 150 0.0 4.8 0.00 0.15 0.00 88 1012.9
20260905085514 25 150 1.6 4.8 0.00 0.15 0.00 87 1012.8
20260905085058 25 150 0.0 4.8 0.00 0.15 0.00 87 1012.9
20260905084532 25 150 0.0 9.7 0.00 0.15 0.00 87 1013.0
20260905084012 25 150 1.6 9.7 0.00 0.15 0.00 87 1013.0
20260905083552 25 124 0.0 12.9 0.00 0.15 0.00 87 1013.0
20260905083034 25 124 0.0 12.9 0.00 0.15 0.00 87 1012.9
20260905082501 25 148 0.0 1.6 0.00 0.15 0.00 86 1012.9
20260905082043 25 148 0.0 3.2 0.00 0.15 0.00 86 1012.9
20260905081521 25 148 0.0 3.2 0.00 0.15 0.00 86 1012.9
20260905081101 26 148 0.0 4.8 0.00 0.15 0.00 86 1013.0
20260905080542 26 148 1.6 4.8 0.00 0.15 0.00 85 1013.0
20260905080016 26 148 0.0 9.7 0.00 0.15 0.00 85 1013.0
20260905075557 26 157 1.6 4.8 0.00 0.15 0.00 85 1013.0
20260905075034 26 157 1.6 8.0 0.00 0.15 0.00 85 1013.0
20260905074511 26 157 1.6 8.0 0.00 0.15 0.00 84 1013.0
20260905074053 26 157 0.0 9.7 0.00 0.15 0.00 84 1013.0
20260905073531 26 148 3.2 9.7 0.00 0.15 0.00 83 1013.1
20260905073007 26 170 3.2 8.0 0.00 0.15 0.00 83 1013.1
20260905072549 26 170 1.6 6.4 0.00 0.15 0.00 83 1013.1
20260905072025 26 170 1.6 4.8 0.00 0.15 0.00 83 1013.1
20260905071503 26 170 1.6 6.4 0.00 0.15 0.00 82 1013.2
20260905071047 26 170 1.6 6.4 0.00 0.15 0.00 82 1013.2
20260905070520 26 170 1.6 6.4 0.00 0.15 0.00 82 1013.3
20260905070105 26 170 1.6 11.3 0.00 0.15 0.00 82 1013.3
20260905065539 26 163 4.8 11.3 0.00 0.15 0.00 82 1013.3
20260905065019 26 155 3.2 9.7 0.00 0.15 0.00 81 1013.4
20260905064559 26 158 1.6 8.0 0.00 0.15 0.00 81 1013.3
20260905064038 26 155 1.6 6.4 0.00 0.15 0.00 80 1013.4
20260905063511 26 175 1.6 8.0 0.00 0.15 0.00 80 1013.4
20260905063055 26 141 1.6 11.3 0.00 0.15 0.00 80 1013.5
20260905062530 26 138 1.6 11.3 0.00 0.15 0.00 79 1013.4
20260905062011 26 151 0.0 4.8 0.00 0.15 0.00 79 1013.4
20260905061551 26 151 1.6 4.8 0.00 0.15 0.00 79 1013.5
20260905061027 27 151 0.0 8.0 0.00 0.15 0.00 78 1013.6
20260905060504 27 153 3.2 8.0 0.00 0.15 0.00 78 1013.5
20260905060051 27 156 1.6 8.0 0.00 0.15 0.00 77 1013.6
20260905055524 27 161 4.8 11.3 0.00 0.15 0.00 77 1013.4
20260905055001 27 170 3.2 11.3 0.00 0.15 0.00 77 1013.5
20260905054544 27 148 3.2 9.7 0.00 0.15 0.00 77 1013.5
20260905054021 27 150 1.6 11.3 0.00 0.15 0.00 77 1013.7
20260905053603 27 146 3.2 19.3 0.00 0.15 0.00 76 1013.5
20260905053041 27 149 4.8 19.3 0.00 0.15 0.00 76 1013.4
20260905052517 27 147 8.0 14.5 0.00 0.15 0.00 76 1013.4
20260905052058 27 177 6.4 14.5 0.00 0.15 0.00 76 1013.5
20260905051540 27 153 3.2 11.3 0.00 0.15 0.15 76 1013.6
20260905051013 27 147 1.6 9.7 0.00 0.15 0.15 76 1013.6
20260905050555 27 150 1.6 11.3 0.00 0.15 0.15 76 1013.7
20260905050034 27 150 3.2 11.3 0.00 0.15 0.15 76 1013.7
20260905045510 27 136 3.2 6.4 0.00 0.15 0.15 76 1013.7
20260905045052 27 148 1.6 8.0 0.00 0.15 0.15 76 1013.6
20260905044537 27 148 3.2 8.0 0.00 0.15 0.15 76 1013.6
20260905044007 27 153 1.6 6.4 0.00 0.15 0.15 76 1013.7
20260905043551 27 147 1.6 11.3 0.00 0.15 0.15 76 1013.7
20260905043027 27 154 1.6 9.7 0.00 0.15 0.15 75 1013.6
20260905042503 27 154 3.2 11.3 0.00 0.15 0.15 75 1013.6
20260905042045 27 157 3.2 11.3 0.00 0.15 0.15 75 1013.5
20260905041524 27 139 4.8 8.0 0.00 0.15 0.15 75 1013.5
20260905041105 27 141 3.2 9.7 0.00 0.15 0.15 74 1013.5
20260905040541 27 161 3.2 9.7 0.00 0.15 0.15 74 1013.5
20260905040020 27 199 3.2 9.7 0.00 0.15 0.15 74 1013.5
20260905035601 27 142 3.2 8.0 0.00 0.15 0.15 74 1013.5
20260905035037 27 152 3.2 8.0 0.00 0.15 0.15 74 1013.4
20260905034517 28 153 1.6 8.0 0.00 0.15 0.15 74 1013.4
20260905034059 28 153 3.2 8.0 0.00 0.15 0.15 74 1013.4
20260905033534 28 153 3.2 8.0 0.00 0.15 0.15 74 1013.4
20260905033014 28 159 4.8 11.3 0.00 0.15 0.15 74 1013.3
20260905032556 28 165 3.2 11.3 0.00 0.15 0.15 74 1013.4
20260905032032 28 161 3.2 9.7 0.00 0.15 0.15 74 1013.4
20260905031512 28 144 1.6 4.8 0.00 0.15 0.15 74 1013.3
20260905031058 28 144 1.6 6.4 0.00 0.15 0.15 73 1013.3
20260905030532 28 144 3.2 6.4 0.00 0.15 0.15 73 1013.2
20260905030014 28 138 1.6 6.4 0.00 0.15 0.15 73 1013.2
20260905025555 28 138 3.2 6.4 0.00 0.15 0.15 72 1013.1
20260905025036 28 138 1.6 6.4 0.00 0.15 0.15 72 1013.2
20260905024515 28 138 1.6 8.0 0.00 0.15 0.15 72 1013.1
20260905024055 28 140 3.2 11.3 0.00 0.15 0.15 72 1013.0
20260905023531 28 148 4.8 11.3 0.00 0.15 0.15 71 1013.0
20260905023014 28 137 3.2 11.3 0.00 0.15 0.15 71 1013.0
20260905022551 28 138 3.2 11.3 0.00 0.15 0.15 71 1012.8
20260905022028 28 162 4.8 8.0 0.00 0.15 0.15 71 1012.8
20260905021508 28 152 3.2 8.0 0.00 0.15 0.15 71 1012.8
20260905021051 28 163 4.8 11.3 0.00 0.15 0.15 71 1012.7
20260905020525 29 159 4.8 11.3 0.00 0.15 0.15 71 1012.7
20260905020009 29 144 3.2 11.3 0.00 0.15 0.15 71 1012.6
20260905015546 29 142 4.8 11.3 0.00 0.15 0.15 71 1012.6
20260905015024 29 112 6.4 11.3 0.00 0.15 0.15 70 1012.4
20260905014502 29 133 4.8 11.3 0.00 0.15 0.15 70 1012.3
20260905014044 29 138 4.8 11.3 0.00 0.15 0.15 70 1012.3
20260905013521 29 157 4.8 12.9 0.00 0.15 0.15 70 1012.3
20260905013105 29 138 4.8 16.1 0.00 0.15 0.15 69 1012.3
20260905012544 29 147 6.4 16.1 0.00 0.15 0.15 69 1012.2
20260905012018 29 140 6.4 12.9 0.00 0.15 0.15 68 1012.2
20260905011602 29 157 3.2 9.7 0.00 0.15 0.15 68 1012.1
20260905011038 30 148 3.2 12.9 0.00 0.15 0.15 67 1012.1
20260905010515 30 142 4.8 14.5 0.00 0.15 0.15 67 1012.1
20260905010109 30 140 6.4 14.5 0.00 0.15 0.15 66 1012.0
20260905005536 30 128 4.8 14.5 0.00 0.15 0.15 66 1012.0
20260905005014 30 134 8.0 14.5 0.00 0.15 0.15 66 1012.1
20260905004557 30 152 9.7 16.1 0.00 0.15 0.15 65 1012.0
20260905004037 30 137 6.4 22.5 0.00 0.15 0.15 64 1012.0
20260905003511 30 145 4.8 22.5 0.00 0.15 0.15 63 1012.0
20260905003054 30 166 6.4 19.3 0.00 0.15 0.15 63 1011.8
20260905002531 31 136 9.7 19.3 0.00 0.15 0.15 62 1011.8
20260905002020 31 129 4.8 17.7 0.00 0.15 0.15 61 1011.8
20260905001552 31 123 8.0 19.3 0.00 0.15 0.15 61 1011.7
20260905001023 31 121 9.7 19.3 0.00 0.15 0.15 60 1011.6
20260905000501 31 127 9.7 19.3 0.00 0.15 0.15 59 1011.4
20260905000058 31 135 12.9 19.3 0.00 0.15 0.15 57 1011.4
20260904235524 31 137 9.7 19.3 0.00 0.15 0.15 55 1011.4
20260904235002 32 129 9.7 20.9 0.00 0.15 0.15 54 1011.4
20260904234546 32 128 9.7 20.9 0.00 0.15 0.15 53 1011.5
20260904234023 32 137 8.0 19.3 0.00 0.15 0.15 54 1011.4
20260904233605 32 139 8.0 20.9 0.00 0.15 0.15 54 1011.3
20260904233045 32 144 11.3 20.9 0.00 0.15 0.15 54 1011.3
20260904232520 33 111 11.3 27.4 0.00 0.15 0.15 53 1011.3
20260904232105 34 87 16.1 27.4 0.00 0.15 0.15 51 1011.3
20260904231549 35 110 9.7 19.3 0.00 0.15 0.15 50 1011.3
20260904231019 35 146 3.2 9.7 0.00 0.15 0.15 44 1011.3
20260904230601 35 208 1.6 12.9 0.00 0.15 0.15 42 1011.2
20260904230059 35 152 4.8 14.5 0.00 0.15 0.15 40 1011.2
20260904225518 35 176 4.8 16.1 0.00 0.15 0.15 40 1011.3
20260904225059 35 130 4.8 16.1 0.00 0.15 0.15 39 1011.3
20260904224541 35 159 4.8 17.7 0.00 0.15 0.15 39 1011.3
20260904224018 35 146 3.2 12.9 0.00 0.15 0.15 38 1011.3
20260904223602 35 151 6.4 12.9 0.00 0.15 0.15 37 1011.4
20260904223049 35 207 3.2 16.1 0.00 0.15 0.15 39 1011.4
20260904222517 35 135 8.0 17.7 0.00 0.15 0.15 39 1011.3
20260904222100 35 167 3.2 11.3 0.00 0.15 0.15 40 1011.4
20260904221539 35 149 1.6 22.5 0.00 0.15 0.15 40 1011.4
20260904221016 35 152 4.8 22.5 0.00 0.15 0.15 40 1011.5
20260904220558 35 150 6.4 20.9 0.00 0.15 0.15 39 1011.4
20260904220049 35 160 4.8 17.7 0.00 0.15 0.15 42 1011.5
20260904215517 34 134 8.0 19.3 0.00 0.15 0.15 41 1011.6
20260904215058 34 137 9.7 19.3 0.00 0.15 0.15 41 1011.7
20260904214540 34 131 8.0 17.7 0.00 0.15 0.15 42 1011.7
20260904214017 35 161 6.4 17.7 0.00 0.15 0.15 39 1011.9
20260904213558 35 142 8.0 17.7 0.00 0.15 0.15 38 1011.9
20260904213040 35 105 6.4 14.5 0.00 0.15 0.15 37 1012.0
20260904212516 35 130 9.7 16.1 0.00 0.15 0.15 37 1012.1
20260904212057 34 78 6.4 17.7 0.00 0.15 0.15 38 1012.1
20260904211543 35 149 9.7 17.7 0.00 0.15 0.15 40 1012.2
20260904211015 35 142 6.4 16.1 0.00 0.15 0.15 42 1012.2
20260904210557 35 160 8.0 17.7 0.00 0.15 0.15 42 1012.2
20260904210046 35 134 8.0 17.7 0.00 0.15 0.15 41 1012.3
20260904205515 34 146 8.0 17.7 0.00 0.15 0.15 42 1012.3
20260904205055 34 148 1.6 17.7 0.00 0.15 0.15 41 1012.3
20260904204538 34 139 11.3 22.5 0.00 0.15 0.15 38 1012.4
20260904204014 34 148 6.4 17.7 0.00 0.15 0.15 40 1012.5
20260904203555 34 138 9.7 17.7 0.00 0.15 0.15 39 1012.6
20260904203037 34 132 8.0 16.1 0.00 0.15 0.15 41 1012.6
20260904202515 34 128 8.0 16.1 0.00 0.15 0.15 40 1012.7
20260904202055 34 131 4.8 14.5 0.00 0.15 0.15 41 1012.7
20260904201545 33 147 6.4 14.5 0.00 0.15 0.15 41 1012.8
20260904201014 33 134 3.2 17.7 0.00 0.15 0.15 46 1013.0
20260904200554 33 220 4.8 17.7 0.00 0.15 0.15 43 1013.0
20260904200050 33 150 8.0 17.7 0.00 0.15 0.15 44 1013.0
20260904195513 33 146 8.0 17.7 0.00 0.15 0.15 45 1013.0
20260904195054 33 155 8.0 17.7 0.00 0.15 0.15 45 1013.1
20260904194544 33 180 3.2 16.1 0.00 0.15 0.15 50 1013.1
20260904194015 33 171 3.2 16.1 0.00 0.15 0.15 49 1013.2
20260904193554 33 213 8.0 16.1 0.00 0.15 0.15 47 1013.3
20260904193037 33 134 4.8 16.1 0.00 0.15 0.15 43 1013.3
20260904192515 33 203 8.0 20.9 0.00 0.15 0.15 45 1013.4
20260904192056 33 114 11.3 19.3 0.00 0.15 0.15 48 1013.3
20260904191536 33 194 11.3 24.1 0.00 0.15 0.15 46 1013.4
20260904191013 33 177 4.8 24.1 0.00 0.15 0.15 54 1013.4
20260904190553 33 207 3.2 17.7 0.00 0.15 0.15 55 1013.5
20260904190037 33 155 6.4 17.7 0.00 0.15 0.15 56 1013.6
20260904185513 33 163 4.8 17.7 0.00 0.15 0.15 56 1013.6
20260904185056 33 132 1.6 17.7 0.00 0.15 0.15 55 1013.7
20260904184601 33 123 9.7 22.5 0.00 0.15 0.15 55 1013.8
20260904184015 33 140 9.7 17.7 0.00 0.15 0.15 55 1013.8
20260904183556 32 132 4.8 14.5 0.00 0.15 0.15 56 1013.9
20260904183041 32 136 6.4 19.3 0.00 0.15 0.15 56 1013.9
20260904182517 32 139 8.0 24.1 0.00 0.15 0.15 56 1013.9
20260904182057 32 147 8.0 24.1 0.00 0.15 0.15 60 1013.9
20260904181536 32 131 11.3 24.1 0.00 0.15 0.15 59 1013.9
20260904181017 32 147 8.0 19.3 0.00 0.15 0.15 62 1014.0
20260904180557 32 130 9.7 22.5 0.00 0.15 0.15 61 1014.0
20260904180036 32 136 11.3 22.5 0.00 0.15 0.15 60 1014.1
20260904175513 32 136 4.8 16.1 0.00 0.15 0.15 61 1014.1
20260904175056 32 154 8.0 20.9 0.00 0.15 0.15 61 1014.1
20260904174608 32 153 14.5 20.9 0.00 0.15 0.15 60 1014.2
20260904174014 32 142 8.0 17.7 0.00 0.15 0.15 62 1014.2
20260904173555 32 151 9.7 17.7 0.00 0.15 0.15 62 1014.2
20260904173043 32 138 9.7 17.7 0.00 0.15 0.15 60 1014.3
20260904172514 32 138 8.0 19.3 0.00 0.15 0.15 61 1014.3
20260904172057 32 171 6.4 19.3 0.00 0.15 0.15 62 1014.3
20260904171539 32 155 1.6 11.3 0.00 0.15 0.15 63 1014.4
20260904171015 31 178 4.8 16.1 0.00 0.15 0.15 64 1014.4
20260904170556 31 130 6.4 16.1 0.00 0.15 0.15 63 1014.5
20260904170047 31 218 1.6 12.9 0.00 0.15 0.15 64 1014.5
20260904165515 31 165 3.2 16.1 0.00 0.15 0.15 66 1014.5
20260904165057 31 148 6.4 16.1 0.00 0.15 0.15 65 1014.5
20260904164540 31 140 3.2 14.5 0.00 0.15 0.15 65 1014.5
20260904164017 31 148 3.2 16.1 0.00 0.15 0.15 64 1014.4
20260904163558 31 145 8.0 16.1 0.00 0.15 0.15 64 1014.4
20260904163051 31 138 6.4 16.1 0.00 0.15 0.15 67 1014.4
20260904162518 30 141 9.7 16.1 0.00 0.15 0.15 67 1014.4
20260904162059 30 133 8.0 16.1 0.00 0.15 0.15 69 1014.3
20260904161542 30 177 6.4 14.5 0.00 0.15 0.15 69 1014.3
20260904161019 30 144 6.4 12.9 0.00 0.15 0.15 71 1014.4
20260904160601 30 225 3.2 12.9 0.00 0.15 0.15 72 1014.4
20260904160045 30 167 1.6 12.9 0.00 0.15 0.15 75 1014.4
20260904155520 29 188 3.2 16.1 0.00 0.15 0.15 75 1014.3
20260904155102 29 185 4.8 16.1 0.00 0.15 0.15 76 1014.4
20260904154547 28 143 9.7 16.1 0.00 0.15 0.15 77 1014.4
20260904154024 28 141 3.2 14.5 0.00 0.15 0.15 81 1014.4
20260904153606 28 139 8.0 12.9 0.00 0.15 0.15 80 1014.3
20260904153101 28 162 3.2 11.3 0.00 0.15 0.15 82 1014.4
20260904152524 28 144 6.4 14.5 0.00 0.15 0.15 81 1014.4
20260904152000 27 211 4.8 9.7 0.00 0.15 0.15 83 1014.3
20260904151552 27 130 3.2 8.0 0.00 0.15 0.15 85 1014.3
20260904151026 27 208 1.6 12.9 0.00 0.15 0.15 85 1014.3
20260904150502 27 170 3.2 12.9 0.00 0.15 0.15 87 1014.3
20260904150050 27 247 1.6 11.3 0.00 0.15 0.15 87 1014.2
20260904145526 26 155 0.0 8.0 0.00 0.15 0.15 89 1014.2
20260904145004 26 197 1.6 9.7 0.00 0.15 0.15 89 1014.2
20260904144552 26 135 3.2 9.7 0.00 0.15 0.15 90 1014.1
20260904144028 26 187 1.6 6.4 0.00 0.15 0.15 90 1014.1
20260904143505 26 167 3.2 12.9 0.00 0.15 0.15 91 1014.1
20260904143054 26 167 4.8 12.9 0.00 0.15 0.15 91 1014.1
20260904142530 26 146 3.2 11.3 0.00 0.15 0.15 91 1014.1
20260904142006 26 165 3.2 12.9 0.00 0.15 0.15 91 1014.0
20260904141556 26 155 3.2 12.9 0.00 0.15 0.15 91 1014.0
20260904141033 26 178 1.6 6.4 0.03 0.15 0.15 91 1014.1
20260904140508 25 178 1.6 6.4 0.03 0.15 0.15 91 1014.0
20260904135535 25 178 0.0 4.8 0.05 0.15 0.15 91 1013.9
20260904135012 25 161 0.0 8.0 0.08 0.15 0.15 91 1013.8
20260904134608 25 254 1.6 8.0 0.10 0.15 0.15 91 1013.7
20260904134036 25 244 0.0 6.4 0.13 0.15 0.15 91 1013.7
20260904133510 25 194 1.6 6.4 0.13 0.15 0.15 91 1013.7
20260904133104 25 194 0.0 4.8 0.15 0.15 0.15 91 1013.7
20260904132537 25 194 1.6 4.8 0.15 0.15 0.15 91 1013.7
20260904132014 25 198 0.0 6.4 0.15 0.15 0.15 91 1013.8
20260904131603 25 198 0.0 4.8 0.15 0.15 0.15 91 1013.8
20260904131040 25 199 1.6 6.4 0.13 0.13 0.13 91 1013.8
20260904130515 25 202 1.6 6.4 0.13 0.13 0.13 91 1013.8
20260904130104 25 211 1.6 4.8 0.10 0.10 0.10 91 1013.9
20260904125541 25 138 0.0 0.0 0.10 0.10 0.10 91 1014.0
20260904125021 25 138 0.0 0.0 0.08 0.08 0.08 90 1014.0
20260904124502 25 138 0.0 0.0 0.05 0.05 0.05 90 1014.0
20260904124042 25 138 0.0 4.8 0.03 0.03 0.03 90 1014.0
20260904123519 25 138 0.0 6.4 0.03 0.03 0.03 90 1014.0
20260904123004 25 138 1.6 9.7 0.00 0.00 0.00 89 1014.0
20260904122546 26 153 3.2 9.7 0.00 0.00 0.00 89 1014.0
20260904122022 26 143 1.6 6.4 0.00 0.00 0.00 89 1013.9
20260904121506 26 143 1.6 6.4 0.00 0.00 0.00 89 1013.9
20260904121052 26 143 1.6 8.0 0.00 0.00 0.00 89 1013.9
20260904120525 26 143 3.2 8.0 0.00 0.00 0.00 88 1013.8
20260904120016 26 134 3.2 8.0 0.00 0.00 0.00 88 1013.7
20260904115554 26 74 3.2 6.4 0.00 0.00 0.00 88 1013.6
20260904115032 26 115 1.6 8.0 0.00 0.00 0.00 88 1013.5
20260904114517 26 144 0.0 9.7 0.00 0.00 0.00 88 1013.4
20260904114100 26 146 3.2 9.7 0.00 0.00 0.00 87 1013.3
20260904113535 26 150 0.0 14.5 0.00 0.00 0.00 87 1013.2
20260904113024 26 152 1.6 9.7 0.00 0.00 0.00 87 1013.1
20260904112602 26 158 3.2 8.0 0.00 0.00 0.00 87 1013.0
20260904112039 26 151 1.6 8.0 0.00 0.00 0.00 86 1012.9
20260904111524 26 151 3.2 8.0 0.00 0.00 0.00 86 1012.8
20260904111002 26 151 0.0 11.3 0.00 0.00 0.00 85 1012.8
20260904110543 26 153 1.6 11.3 0.00 0.00 0.00 85 1012.8
20260904110027 26 148 4.8 9.7 0.00 0.00 0.00 85 1012.8
20260904105504 26 180 1.6 11.3 0.00 0.00 0.00 85 1012.8
20260904105044 26 159 4.8 14.5 0.00 0.00 0.00 85 1012.7
20260904104531 26 153 4.8 16.1 0.00 0.00 0.00 85 1012.7
20260904104007 26 147 4.8 16.1 0.00 0.00 0.00 85 1012.7
20260904103546 26 146 6.4 14.5 0.00 0.00 0.00 85 1012.6
20260904103031 26 140 6.4 12.9 0.00 0.00 0.00 85 1012.6
20260904102507 26 147 6.4 12.9 0.00 0.00 0.00 85 1012.5
20260904102048 26 154 6.4 12.9 0.00 0.00 0.00 85 1012.6
20260904101535 26 149 6.4 11.3 0.00 0.00 0.00 85 1012.6
20260904101010 26 142 3.2 11.3 0.00 0.00 0.00 85 1012.6
20260904100555 26 154 3.2 11.3 0.00 0.00 0.00 85 1012.6
20260904100044 26 126 3.2 11.3 0.00 0.00 0.00 85 1012.5
20260904095516 26 146 3.2 16.1 0.00 0.00 0.00 84 1012.4
20260904095059 26 140 8.0 16.1 0.00 0.00 0.00 84 1012.3
20260904094543 26 165 3.2 12.9 0.00 0.00 0.00 84 1012.3
20260904094019 26 150 3.2 17.7 0.00 0.00 0.00 84 1012.2
20260904093603 26 144 3.2 17.7 0.00 0.00 0.00 84 1012.3
20260904093058 26 141 6.4 12.9 0.00 0.00 0.00 84 1012.3
20260904092525 26 147 4.8 12.9 0.00 0.00 0.00 84 1012.2
20260904092104 26 168 6.4 14.5 0.00 0.00 0.00 84 1012.2